Location: Manchester NH
(43.0000°N, 71.5000°W)
Time: 09:06:58
(UTC-04:00)

Envisat - Pass Details

Date: 25 April 2019
Orbit: 764 x 766 km, 98.2° (Epoch: 21 May)

Event Time Altitude Azimuth Distance (km) Brightness Sun altitude
Rises 20:15:52 0° 199° (SSW) 3,219 6.2 -6.9°
Reaches altitude 10° 20:18:35 10° 213° (SSW) 2,298 5.6 -7.4°
Maximum altitude 20:22:38 24° 267° (W) 1,554 5.4 -8.0°
Drops below altitude 10° 20:26:42 10° 320° (NW) 2,311 6.7 -8.7°
Sets 20:29:27 0° 334° (NNW) 3,242 7.2 -9.1°
